Lapse_Rate
5.7 5.6 5.9 5.9 5.7 5.7 5.7 5.7 5.7 5.9 6.2 6.2 6.3 5.8 6.1 6.4 6.6 6.6 6.6 6.9 7.1 7.2 7.9 8.4 8.8 8.8 8.5 8.1 7.8 7.6 7.6 7.7 8.2 8.3 7.8 7.6 7.5 7.7 7.4 7.5 7.7 7.9 8.1 8.2
5.7 5.9 5.9 5.6 5.8 5.8 5.8 5.8 5.9 6.0 6.3 6.3 6.3 6.0 6.2 6.3 6.3 6.5 6.6 6.9 6.9 7.3 7.3 7.9 8.2 8.7 8.9 8.7 8.3 8.0 7.7 7.5 7.6 7.6 7.7 7.5 7.6 7.6 7.5 7.5 8.0 7.9 8.1 8.0
5.7 5.9 6.0 6.0 5.9 5.9 5.9 5.8 5.3 5.3 5.5 5.9 6.2 5.7 5.7 6.5 6.1 6.4 6.5 6.7 7.0 7.0 7.2 7.3 7.7 7.8 8.3 8.9 8.9 8.7 8.2 7.7 7.4 7.7 7.6 7.5 7.5 7.5 7.6 7.8 8.1 7.8 8.0 7.7
5.8 6.0 6.0 6.2 6.1 6.1 6.2 6.4 6.3 6.0 5.9 5.6 6.4 4.8 5.3 5.6 5.9 5.8 6.2 6.6 6.7 7.1 7.0 7.0 7.2 7.7 8.2 8.1 8.7 8.7 8.3 8.1 7.7 7.7 7.8 7.5 7.7 7.7 7.6 7.7 7.6 7.8 8.1 7.8
6.2 6.2 6.4 6.3 6.5 6.4 6.3 6.4 6.4 6.2 6.1 6.0 5.4 6.2 4.6 5.5 5.5 5.7 6.1 6.7 6.9 7.1 7.3 7.1 7.3 7.5 7.7 7.9 8.0 8.1 8.3 8.3 8.1 7.9 7.4 7.3 7.7 7.5 7.5 7.2 7.4 7.4 7.4 7.6
6.3 6.2 6.3 6.8 7.1 7.2 7.2 6.7 6.3 6.2 6.4 6.0 6.0 7.4 4.8 5.3 5.4 6.3 6.7 6.7 6.5 6.8 7.0 7.1 7.4 7.5 7.7 7.8 8.0 8.0 8.0 7.8 8.1 7.7 7.3 7.5 7.5 7.1 7.0 7.2 7.0 7.4 7.6 7.8
7.0 7.6 7.7 7.5 7.5 7.6 7.7 7.7 6.5 6.1 6.4 6.3 8.0 7.1 5.6 5.9 6.6 6.4 6.0 6.5 6.7 6.6 6.7 7.6 7.6 7.7 7.4 7.6 7.8 7.8 8.0 7.9 7.5 7.3 7.1 7.5 7.3 7.1 7.2 6.9 7.2 7.4 7.5 7.5
6.9 7.1 7.8 7.9 7.7 7.5 7.5 7.7 7.7 7.2 7.3 7.0 7.4 7.3 7.6 7.1 7.7 6.9 6.3 6.2 6.8 6.9 6.9 7.1 7.6 7.7 7.5 7.3 7.5 7.4 7.5 7.3 7.3 7.3 7.2 7.4 7.4 7.3 7.0 7.0 7.2 7.4 7.5 7.3
6.9 7.1 7.6 8.0 7.6 7.8 7.8 7.5 8.0 8.1 7.7 7.0 7.3 7.7 7.9 8.1 8.1 8.4 7.8 7.4 7.2 7.1 7.1 7.1 7.3 7.6 7.4 7.3 7.4 7.5 7.6 7.4 7.3 7.4 7.4 7.3 7.3 7.1 7.0 7.2 7.3 7.7 7.3 7.0
7.0 6.6 7.0 7.6 7.9 8.1 8.4 7.7 7.5 7.7 7.1 7.3 7.6 8.0 7.9 8.1 8.1 8.3 8.2 8.1 8.0 7.0 7.1 7.1 7.2 7.7 7.5 7.4 7.3 7.4 7.4 7.3 7.3 7.3 7.2 7.1 7.3 7.3 7.1 7.1 7.7 7.4 7.1 7.0
7.0 6.8 7.0 7.3 7.4 7.3 7.4 7.6 7.5 7.3 7.1 7.4 7.0 7.5 8.2 8.1 7.7 7.8 7.8 7.6 7.7 7.7 7.4 6.9 7.1 7.5 7.5 7.5 7.4 7.3 7.4 7.4 7.4 7.2 7.2 7.1 7.0 7.0 7.2 7.4 7.5 7.2 7.0 7.1
7.0 6.4 6.3 6.9 7.6 7.8 7.6 7.5 7.6 7.6 7.3 6.9 6.9 6.9 8.4 8.1 8.3 8.2 7.8 7.9 8.0 8.2 7.7 6.7 7.2 7.5 7.5 7.5 7.3 7.2 7.0 7.3 7.4 7.3 7.2 7.0 6.9 7.0 7.3 7.4 7.5 7.2 7.1 7.2
6.5 6.2 5.9 6.7 7.5 7.2 7.7 7.4 7.3 7.5 7.4 6.9 7.2 7.2 8.4 8.3 8.2 7.8 7.4 7.3 7.6 8.5 8.2 7.3 7.2 7.3 7.3 7.2 7.2 7.0 6.9 7.2 7.3 7.3 7.0 6.9 7.0 7.2 7.4 7.6 7.3 7.2 7.3 7.2
6.3 6.2 6.2 6.2 6.7 6.7 6.5 7.3 7.6 6.9 7.0 7.2 7.1 7.2 7.9 8.2 7.9 8.1 7.3 7.3 6.8 7.5 8.6 7.8 7.4 6.8 6.8 6.7 6.8 7.2 7.0 7.1 7.0 7.0 7.0 7.0 7.3 7.5 7.6 7.4 7.4 7.2 6.8 6.6
6.1 5.9 5.9 6.0 6.2 6.7 6.8 7.0 7.6 7.3 7.5 7.1 7.1 7.4 7.9 7.9 8.3 8.3 7.8 7.8 6.6 7.2 8.1 8.1 6.6 7.8 7.6 7.2 7.0 7.3 6.9 7.1 7.2 7.2 7.2 7.1 7.4 7.3 7.2 6.9 6.8 6.8 7.0 7.0
6.2 6.0 6.1 6.3 7.2 7.1 6.9 7.0 7.1 7.5 7.6 7.3 7.2 7.6 8.3 7.7 7.8 8.1 8.0 7.5 7.1 7.0 7.7 7.3 7.3 6.8 6.7 7.6 7.6 6.4 6.8 7.1 7.0 7.3 7.1 7.2 7.1 7.0 7.0 6.9 7.0 7.1 7.0 6.7
6.0 6.2 6.2 6.4 6.9 6.8 6.9 7.1 7.3 7.5 7.2 7.1 6.9 7.5 7.4 8.1 8.0 7.8 7.9 7.2 6.6 6.7 6.4 6.4 6.1 5.9 5.6 6.9 7.0 6.5 6.7 7.0 7.1 7.2 7.0 7.0 7.3 7.0 6.9 7.0 7.1 6.8 6.4 6.4
6.8 6.4 6.1 6.2 6.5 6.6 7.1 7.1 7.1 7.0 6.8 7.1 7.2 7.2 7.1 7.5 7.8 7.9 7.9 6.8 6.6 6.9 6.5 6.4 6.0 6.2 6.2 6.3 6.9 5.4 7.0 6.8 7.0 6.8 7.0 7.2 7.2 6.9 7.0 7.0 6.9 6.8 6.6 6.4
6.8 6.5 6.3 6.0 6.2 6.8 7.2 7.4 7.1 6.5 7.3 7.3 7.2 7.0 6.9 6.8 7.0 8.1 7.6 7.7 6.7 6.4 6.6 6.3 5.9 6.1 6.0 6.7 6.3 6.1 6.6 6.9 6.9 6.7 6.8 6.8 6.9 6.9 7.0 6.8 6.7 6.7 6.3 5.4
6.6 6.5 6.3 6.2 6.2 5.6 7.2 7.1 7.0 6.6 6.3 7.3 6.6 6.5 6.3 6.1 6.0 7.7 7.3 7.9 7.0 6.8 6.4 6.2 5.8 6.3 5.8 5.7 5.4 6.3 6.9 7.0 7.0 6.5 6.5 6.7 6.7 6.8 6.7 6.7 6.4 5.9 5.4 5.1
6.6 6.4 6.4 6.5 6.4 6.8 7.1 7.0 6.9 6.3 6.2 6.5 6.1 5.8 5.2 4.9 4.7 6.3 6.9 7.0 6.7 6.7 6.5 6.1 5.9 5.6 5.5 4.8 5.2 6.6 7.0 6.7 6.3 6.1 6.6 6.5 6.4 6.5 6.5 6.0 5.2 5.2 5.3 5.2
6.4 6.6 6.5 6.4 6.4 6.4 6.7 6.7 6.5 5.9 6.0 5.2 5.0 5.2 4.7 4.4 4.4 5.0 6.2 6.3 6.8 6.5 6.2 6.2 5.8 5.2 5.1 5.8 5.7 6.8 6.6 6.6 6.7 6.7 6.6 6.3 6.3 6.2 5.7 5.1 5.2 5.0 5.4 5.5
6.4 6.8 6.3 6.7 7.0 6.6 6.8 6.6 6.3 5.7 5.4 5.0 5.0 5.0 4.6 4.4 4.6 5.2 5.7 5.9 6.5 6.3 6.1 6.1 6.1 5.4 5.6 6.2 6.0 6.3 6.5 6.6 6.5 5.6 5.7 6.0 5.9 5.9 5.1 5.3 5.5 5.5 5.5 5.7
6.4 6.4 6.5 6.4 7.1 6.9 6.7 6.5 6.1 5.4 5.5 5.1 4.9 5.2 4.3 4.6 4.5 5.6 5.6 5.7 6.1 6.1 6.0 6.4 5.6 5.3 6.2 6.2 5.8 6.4 6.0 5.8 5.7 5.3 5.5 5.3 5.7 5.8 5.6 5.5 5.4 5.5 5.6 5.8
6.4 6.7 6.5 6.5 6.8 6.5 6.6 6.1 5.4 5.3 5.3 5.4 5.4 5.3 4.3 4.7 4.7 5.4 5.6 5.9 6.1 6.2 6.2 6.2 5.8 5.8 6.2 6.2 6.0 6.0 6.3 5.9 5.4 5.4 5.4 5.3 5.8 5.6 5.7 5.6 5.6 5.7 5.6 5.6
6.6 6.6 6.5 6.5 6.5 6.4 6.1 5.9 5.4 5.4 5.6 5.9 6.0 6.0 5.1 4.7 5.5 5.7 5.8 6.1 6.1 6.1 6.2 6.0 5.8 5.1 6.2 6.2 6.1 6.1 5.9 5.9 5.6 5.3 5.4 5.4 5.1 5.4 5.6 5.6 5.9 5.9 5.8 5.7
Wind_Speed
4 3 4 11 9 12 7 10 7 5 8 6 8 15 14 6 6 8 9 12 13 15 19 11 11 10 12 11 12 8 12 16 11 8 8 7 11 10 5 7 9 10 10 11
6 3 3 5 7 6 8 5 7 6 7 11 12 21 18 8 6 7 10 11 11 13 17 18 12 12 9 9 13 15 11 14 12 11 10 8 10 6 9 8 9 11 12 10
3 7 8 8 6 7 5 5 8 8 12 8 6 17 16 15 5 6 8 9 10 10 13 15 13 10 10 10 10 11 17 18 17 17 8 3 3 1 3 4 4 6 9 11
6 7 5 7 3 3 3 7 10 12 9 4 3 13 16 12 14 7 9 8 11 11 11 10 13 11 9 10 8 9 14 17 17 15 14 14 6 5 5 4 4 4 8 11
10 5 11 3 1 2 6 6 6 9 10 4 9 6 14 5 13 15 13 15 11 12 10 12 14 15 14 10 10 9 10 10 12 12 11 10 5 5 2 3 5 4 5 10
8 3 4 5 2 1 3 4 6 4 3 6 9 8 26 12 9 14 12 13 14 16 15 14 11 13 12 8 8 9 10 11 9 9 9 9 10 8 5 4 4 4 3 5
3 3 3 3 1 3 1 4 4 5 3 5 2 5 19 9 3 2 9 12 12 12 12 15 17 14 11 10 10 9 12 14 14 14 12 12 13 12 10 7 6 6 4 3
3 6 2 2 4 6 5 6 4 4 6 10 13 7 5 7 3 3 7 9 10 8 10 14 17 17 14 13 11 12 11 14 13 15 16 13 13 9 7 8 6 7 7 7
3 5 8 6 3 2 2 4 7 3 3 5 5 7 6 5 6 9 11 10 13 13 10 14 17 16 16 15 17 15 15 16 15 15 12 10 11 9 9 9 8 6 5 6
3 7 4 2 5 9 6 2 2 2 3 5 5 5 6 8 8 10 13 12 14 14 14 14 13 16 15 16 17 12 17 18 17 14 12 11 10 10 9 10 10 10 7 7
1 2 5 4 5 13 3 2 2 2 3 4 5 5 6 8 10 8 12 13 12 16 16 12 13 14 14 12 16 16 11 10 11 12 10 10 10 10 10 10 10 10 9 8
1 1 4 10 20 9 4 4 5 3 3 3 3 8 10 11 12 7 11 15 15 15 15 12 12 12 13 13 13 15 7 8 9 11 11 9 10 10 10 9 10 10 10 9
1 1 5 7 3 3 2 4 4 4 2 6 4 8 5 11 10 8 9 13 17 15 14 8 8 11 13 12 10 11 7 9 10 10 10 9 10 11 10 11 11 10 10 9
5 2 6 7 15 10 13 15 15 9 4 6 14 19 17 20 15 11 11 11 12 14 14 7 9 13 13 10 11 7 8 14 13 12 11 10 11 11 11 11 11 11 11 11
6 5 10 19 21 20 19 19 21 16 15 12 18 16 17 9 17 11 13 13 12 15 15 16 13 17 20 10 10 9 6 12 13 13 12 11 11 12 11 12 11 11 12 9
3 5 6 15 18 16 17 18 20 19 14 9 5 11 11 11 10 10 13 14 15 15 23 25 24 22 17 14 12 2 7 10 13 14 13 12 12 15 14 12 11 10 10 9
5 3 3 5 8 13 6 4 4 3 2 3 6 10 9 16 17 16 19 20 13 18 16 13 13 3 13 7 11 10 13 12 13 15 15 14 14 13 13 12 12 10 9 8
6 4 3 5 6 3 2 6 5 8 11 12 12 8 11 15 20 18 15 5 13 18 19 17 13 1 4 5 9 11 15 13 16 17 15 14 15 13 11 11 10 9 10 11
5 3 3 3 2 7 2 4 3 3 17 12 6 12 17 18 19 21 2 14 19 19 19 16 15 5 4 2 8 8 8 13 17 16 15 14 13 11 11 10 11 10 10 9
3 4 4 1 3 4 3 4 4 7 9 2 12 16 20 19 13 17 19 24 24 21 17 16 17 4 4 1 7 12 13 16 16 14 14 12 11 11 11 11 12 7 9 9
3 4 8 5 5 6 4 4 2 0 6 15 13 17 16 14 11 19 24 24 18 18 18 16 14 7 4 4 12 18 15 16 14 13 13 11 11 12 12 11 10 9 9 9
3 2 3 3 4 5 1 2 1 5 17 16 14 13 15 18 19 16 18 16 15 16 16 15 11 6 5 5 10 8 16 13 14 13 12 12 10 10 10 12 8 10 10 11
2 5 3 5 5 5 6 7 7 8 15 17 14 14 15 17 18 17 14 14 10 12 13 14 11 4 6 9 8 11 11 14 14 12 11 10 10 9 10 10 9 8 10 9
5 1 3 1 6 13 7 5 5 7 14 11 11 17 15 17 14 15 14 14 14 13 12 11 9 5 6 8 8 14 14 14 14 12 11 10 10 7 6 7 7 8 8 7
9 5 4 7 12 9 5 6 12 12 10 9 15 14 15 14 14 14 15 16 14 13 11 10 4 5 6 4 13 15 14 14 13 11 10 9 8 9 7 6 4 5 4 8
3 3 3 3 6 5 7 7 11 8 6 12 13 13 13 13 14 14 14 15 15 13 10 5 5 6 9 3 14 13 15 14 14 11 9 8 7 6 7 7 5 14 7 5
Wind_Direction
305 76 211 247 227 244 263 271 270 285 297 281 275 276 286 281 302 306 300 301 299 292 277 257 241 240 179 197 204 239 258 206 199 182 186 206 214 216 214 214 202 197 203 193
8 287 242 282 311 314 312 311 309 275 304 305 302 288 284 270 253 265 275 280 284 297 295 274 255 236 232 197 201 211 214 238 201 199 203 206 203 214 214 208 208 196 207 194
197 252 295 316 317 330 337 353 348 335 324 332 329 288 292 293 247 278 286 272 280 271 284 286 268 233 243 224 203 204 205 206 213 202 190 84 95 81 148 215 214 208 191 190
253 251 269 288 299 42 335 348 331 321 329 279 6 285 286 289 289 268 281 284 282 283 279 273 281 271 224 233 217 201 201 202 201 199 189 190 178 176 210 181 190 207 189 193
250 279 278 294 4 327 268 333 306 306 286 297 262 263 286 327 295 298 289 276 270 275 266 276 281 279 249 217 199 206 187 189 199 187 189 195 172 194 175 174 196 202 185 180
238 240 133 168 225 286 311 318 318 326 222 247 275 220 277 256 272 276 329 347 337 336 325 308 283 280 273 243 210 186 179 196 205 192 201 186 185 194 176 184 197 195 170 159
324 325 96 118 328 332 157 14 327 331 346 241 9 296 260 270 64 107 318 314 313 313 320 318 315 301 284 269 241 202 191 202 203 203 209 203 203 199 191 181 183 162 152 156
176 322 313 81 212 257 241 181 164 258 280 289 290 249 266 80 47 288 276 271 295 305 315 312 310 308 278 258 245 221 202 206 203 207 210 207 204 199 185 181 175 178 175 167
315 260 325 285 15 73 253 193 206 188 231 262 236 278 279 45 341 332 322 319 309 315 307 310 308 309 314 287 269 222 211 210 208 207 206 201 196 175 175 168 167 158 144 153
327 300 186 283 331 267 181 211 272 10 286 251 260 270 257 313 302 310 315 313 300 307 302 303 300 305 308 322 287 233 206 204 200 198 194 197 185 165 155 161 153 152 143 144
90 194 276 3 237 281 312 221 59 125 201 267 295 259 230 247 260 266 282 290 297 299 292 287 293 291 301 300 316 260 215 179 173 179 175 164 161 152 155 156 153 155 149 151
51 249 282 278 278 280 239 213 159 194 211 230 257 259 257 224 244 248 284 304 299 277 273 271 283 287 295 308 311 296 207 177 161 156 155 149 143 146 146 147 148 146 149 145
240 287 301 315 27 323 121 225 225 231 209 223 254 264 233 250 253 252 276 296 284 279 275 279 277 296 298 306 299 286 200 153 145 139 134 137 145 149 151 148 145 144 139 141
135 221 229 255 277 284 282 282 277 231 206 248 249 277 295 289 280 243 254 252 268 283 282 283 309 298 282 286 289 282 196 150 141 137 134 134 146 152 148 141 145 143 147 145
132 258 253 258 265 271 269 269 273 266 242 239 271 271 286 287 306 241 235 292 301 300 308 312 309 296 298 296 261 283 213 141 135 128 129 134 138 136 136 133 137 136 136 140
148 271 279 284 268 263 267 267 261 254 264 265 289 280 248 312 300 287 258 293 305 316 317 313 304 294 300 263 222 203 217 148 132 130 127 134 136 133 130 123 127 118 116 116
162 241 259 263 302 302 282 308 319 313 307 303 277 274 343 327 323 334 319 311 347 354 333 327 316 343 297 175 152 209 265 139 132 127 131 137 129 127 130 134 125 119 116 116
178 200 234 281 337 288 106 34 33 348 275 311 287 326 329 316 320 304 294 311 340 347 325 333 339 182 297 338 139 209 239 146 134 129 136 136 137 135 130 127 118 115 125 127
148 149 254 270 245 278 328 16 15 354 290 273 332 333 320 330 318 301 27 356 338 319 313 322 319 264 129 353 282 204 262 142 130 128 133 141 138 134 122 118 126 122 124 122
222 243 206 199 263 251 217 163 290 297 273 30 345 323 316 338 312 299 328 320 314 305 307 318 316 311 13 279 316 304 179 133 124 130 141 137 125 121 128 132 129 131 128 122
238 231 240 252 255 273 163 224 274 353 299 312 327 305 309 302 282 298 302 298 291 291 303 322 326 358 72 334 224 197 142 133 135 136 132 129 130 135 136 136 131 125 115 112
215 228 243 242 247 281 117 6 133 245 281 296 299 290 303 292 293 294 297 288 285 293 315 326 324 350 298 281 350 168 135 132 134 135 138 135 137 133 139 135 127 124 122 119
297 208 226 211 236 229 232 226 249 266 286 296 295 301 304 290 295 299 304 308 313 318 321 317 319 40 260 279 276 140 132 132 131 131 134 135 125 128 139 130 126 125 126 130
311 189 239 188 254 255 274 310 292 275 294 298 308 301 297 291 293 299 305 309 310 305 309 305 318 206 266 282 202 128 137 138 136 138 134 131 124 114 113 131 137 139 138 137
273 272 304 254 269 288 301 296 301 302 301 303 309 300 300 299 298 297 298 293 288 287 286 276 199 205 215 213 146 129 137 137 133 128 131 123 124 116 102 74 61 129 116 152
233 227 266 285 277 256 283 288 301 308 316 308 306 308 303 296 293 298 294 288 278 271 261 255 122 338 332 204 126 128 128 135 131 134 132 132 126 126 131 128 99 46 45 113